{"data":{"norad_id":66055,"epoch":"2026-05-25T04:08:35.289024Z","epoch_age_seconds":56539,"freshness":"FRESH","line1":"1 66055U 25234C   26145.17263066  .00004396  00000+0  18456-3 0  9995","line2":"2 66055  97.4267 213.7773 0013500 235.0079 124.9891 15.23905144 33187","mean_motion":15.23905144,"eccentricity":0.00135,"inclination_deg":97.4267,"raan_deg":213.7773,"arg_perigee_deg":235.0079,"mean_anomaly_deg":124.9891,"bstar":0.00018456,"rev_number":3318,"period_min":94.49407042621,"perigee_km":484.79755763372,"apogee_km":503.35253015223,"semimajor_km":6872.212043893,"source":"CELESTRAK","updated_at":"2026-05-25T13:38:05.924594Z"}}